Franklin, NC

8:36 PM EDT on October 18, 2019 (GMT -0400)
Franklin

Weather History for K1A5 - September, 2019

Change the Weather History Date:

Friday, September 20, 2019

  Actual Average (KTOC) Record (KTOC)
Temperature  
Mean Temperature 66 °F -  
Max Temperature 81 °F 83 °F 93 °F (2017)
Min Temperature 51 °F 60 °F 63 °F (2015)
Cooling Degree Days 1    
Growing Degree Days 16 (Base 50)    
Moisture  
Dew Point 56 °F    
Average Humidity 73    
Maximum Humidity 97    
Minimum Humidity 46    
Precipitation  
Precipitation 0.00 in - - ()
Sea Level Pressure  
Sea Level Pressure 30.35 in    
Wind  
Wind Speed 1 mph ()    
Max Wind Speed 6 mph    
Max Gust Speed -    
Visibility 9.6 miles    
Events      
Averages and records for this station are not official NWS values.
T = Trace of Precipitation, MM = Missing Value Source: Averaged Metar Reports

Daily Weather History Graph

Daily Weather History Graph

Search for Another Location

Airport or City:

Astronomy

Sep. 20, 2019 Rise Set
Actual Time 7:20 AM EDT 7:33 PM EDT
Civil Twilight 6:54 AM EDT 7:59 PM EDT
Nautical Twilight 6:24 AM EDT 8:28 PM EDT
Astronomical Twilight 5:54 AM EDT 8:58 PM EDT
Moon 11:35 PM EDT (9/20) 1:11 PM EDT (9/20)
Length of Visible Light 13h 04m
Length of Day
12h 13m
Waning Gibbous, 65% of the Moon is Illuminated
Sep 20
Waning Gibbous
Sep 21
Last Quarter
Sep 28
New
Oct 5
First Quarter
Oct 13
Full

Hourly Weather History & Observations

Time (EDT) Temp. Heat Index Dew Point Humidity Pressure Visibility Wind Dir Wind Speed Gust Speed Precip Events Conditions
12:15 AM 63.1 °F - 56.3 °F 78% 30.34 in 10.0 mi Calm Calm - N/A   Overcast
12:35 AM 63.1 °F - 56.1 °F 78% 30.34 in 10.0 mi Calm Calm - N/A   Overcast
12:55 AM 62.6 °F - 57.4 °F 83% 30.34 in 10.0 mi Calm Calm - N/A   Overcast
1:15 AM 62.1 °F - 57.7 °F 86% 30.34 in 10.0 mi Calm Calm - N/A   Overcast
1:35 AM 61.9 °F - 57.7 °F 86% 30.34 in 10.0 mi Calm Calm - N/A   Overcast
1:55 AM 61.9 °F - 57.9 °F 87% 30.35 in 10.0 mi Calm Calm - N/A   Overcast
2:15 AM 61.7 °F - 58.1 °F 88% 30.35 in 10.0 mi Calm Calm - N/A   Overcast
2:35 AM 61.7 °F - 58.3 °F 89% 30.35 in 10.0 mi Calm Calm - N/A   Overcast
2:55 AM 61.0 °F - 58.1 °F 90% 30.34 in 10.0 mi Calm Calm - N/A   Overcast
3:35 AM 59.5 °F - 57.6 °F 93% 30.34 in 10.0 mi Calm Calm - N/A   Overcast
3:55 AM 59.0 °F - 57.2 °F 94% 30.33 in 10.0 mi Calm Calm - N/A   Overcast
4:15 AM 59.0 °F - 56.8 °F 93% 30.33 in 10.0 mi Calm Calm - N/A   Overcast
4:35 AM 58.3 °F - 56.3 °F 93% 30.33 in 10.0 mi Calm Calm - N/A   Overcast
4:55 AM 57.0 °F - 55.0 °F 93% 30.34 in 10.0 mi Calm Calm - N/A   Mostly Cloudy
5:15 AM 57.2 °F - 55.0 °F 92% 30.34 in 10.0 mi Calm Calm - N/A   Overcast
5:55 AM 54.3 °F - 52.9 °F 95% 30.35 in 10.0 mi WSW 3.5 mph - N/A   Clear
6:15 AM 54.5 °F - 53.2 °F 96% 30.35 in 10.0 mi Calm Calm - N/A   Clear
6:35 AM 53.4 °F - 52.5 °F 97% 30.36 in 4.0 mi Calm Calm - N/A   Clear
6:55 AM 52.9 °F - 51.8 °F 96% 30.36 in 10.0 mi Calm Calm - N/A   Clear
7:15 AM 52.7 °F - 51.8 °F 97% 30.37 in 4.0 mi Calm Calm - N/A   Clear
7:35 AM 51.6 °F - 50.7 °F 97% 30.37 in 1.2 mi Calm Calm - N/A   Scattered Clouds
7:55 AM 52.5 °F - 51.6 °F 97% 30.38 in 7.0 mi Calm Calm - N/A   Mostly Cloudy
8:35 AM 55.9 °F - 54.5 °F 95% 30.39 in 10.0 mi Calm Calm - N/A   Mostly Cloudy
8:55 AM 57.2 °F - 54.9 °F 92% 30.39 in 10.0 mi Calm Calm - N/A   Scattered Clouds
9:15 AM 60.6 °F - 54.9 °F 81% 30.39 in 10.0 mi ENE 3.5 mph - N/A   Clear
9:35 AM 61.5 °F - 54.3 °F 77% 30.40 in 10.0 mi Calm Calm - N/A   Clear
9:55 AM 63.5 °F - 54.5 °F 72% 30.39 in 10.0 mi Calm Calm - N/A   Clear
10:15 AM 65.1 °F - 54.0 °F 67% 30.39 in 10.0 mi ENE 4.6 mph - N/A   Clear
10:35 AM 66.2 °F - 53.6 °F 64% 30.39 in 10.0 mi ENE 3.5 mph - N/A   Clear
10:55 AM 67.8 °F - 52.2 °F 57% 30.39 in 10.0 mi Calm Calm - N/A   Clear
11:15 AM 68.7 °F - 52.3 °F 56% 30.39 in 10.0 mi ENE 4.6 mph - N/A   Clear
11:35 AM 70.7 °F - 53.1 °F 54% 30.39 in 10.0 mi NE 5.8 mph - N/A   Clear
11:55 AM 72.1 °F - 53.6 °F 52% 30.39 in 10.0 mi Calm Calm - N/A   Clear
12:35 PM 73.6 °F - 54.5 °F 51% 30.38 in 10.0 mi Calm Calm - N/A   Clear
12:55 PM 75.0 °F - 54.3 °F 48% 30.38 in 10.0 mi Calm Calm - N/A   Clear
1:35 PM 77.4 °F - 55.9 °F 47% 30.35 in 10.0 mi SSE 3.5 mph - N/A   Clear
1:55 PM 78.3 °F - 56.1 °F 46% 30.34 in 10.0 mi East 5.8 mph - N/A   Clear
2:15 PM 79.0 °F - 56.7 °F 46% 30.33 in 10.0 mi Calm Calm - N/A   Clear
2:35 PM 78.8 °F - 56.5 °F 46% 30.32 in 10.0 mi Calm Calm - N/A   Clear
3:15 PM 79.9 °F - 57.7 °F 47% 30.31 in 10.0 mi Calm Calm - N/A   Clear
3:35 PM 80.4 °F 80.8 °F 57.7 °F 46% 30.30 in 10.0 mi Calm Calm - N/A   Clear
3:55 PM 81.0 °F 81.2 °F 58.5 °F 46% 30.30 in 10.0 mi South 4.6 mph - N/A   Clear
4:15 PM 81.3 °F 81.6 °F 58.5 °F 46% 30.30 in 10.0 mi SSE 4.6 mph - N/A   Clear
4:35 PM 80.2 °F 80.8 °F 58.6 °F 48% 30.30 in 10.0 mi SW 3.5 mph - N/A   Clear
4:55 PM 80.6 °F 80.9 °F 58.1 °F 46% 30.30 in 10.0 mi SSW 3.5 mph - N/A   Clear
5:15 PM 79.9 °F - 57.9 °F 47% 30.30 in 10.0 mi South 3.5 mph - N/A   Clear
5:35 PM 79.3 °F - 58.3 °F 48% 30.30 in 10.0 mi Calm Calm - N/A   Clear
5:55 PM 78.1 °F - 57.9 °F 50% 30.30 in 10.0 mi SSE 3.5 mph - N/A   Clear
6:15 PM 77.2 °F - 58.1 °F 52% 30.30 in 10.0 mi South 5.8 mph - N/A   Clear
6:35 PM 76.1 °F - 58.8 °F 55% 30.30 in 10.0 mi Calm Calm - N/A   Clear
6:55 PM 74.7 °F - 58.3 °F 57% 30.31 in 10.0 mi South 4.6 mph - N/A   Clear
7:15 PM 73.4 °F - 58.3 °F 59% 30.32 in 10.0 mi Calm Calm - N/A   Clear
7:35 PM 71.8 °F - 58.1 °F 62% 30.32 in 10.0 mi Calm Calm - N/A   Clear
7:55 PM 69.8 °F - 58.3 °F 67% 30.33 in 10.0 mi Calm Calm - N/A   Clear
8:15 PM 70.0 °F - 57.9 °F 65% 30.34 in 10.0 mi Calm Calm - N/A   Mostly Cloudy
8:35 PM 68.4 °F - 57.9 °F 69% 30.34 in 10.0 mi Calm Calm - N/A   Mostly Cloudy
9:15 PM 64.6 °F - 59.0 °F 82% 30.35 in 10.0 mi Calm Calm - N/A   Mostly Cloudy
9:35 PM 63.3 °F - 59.0 °F 86% 30.36 in 10.0 mi Calm Calm - N/A   Scattered Clouds
9:55 PM 62.4 °F - 58.3 °F 86% 30.37 in 10.0 mi Calm Calm - N/A   Clear
10:35 PM 61.9 °F - 58.8 °F 90% 30.38 in 10.0 mi Calm Calm - N/A   Mostly Cloudy
10:55 PM 60.8 °F - 58.3 °F 91% 30.38 in 10.0 mi Calm Calm - N/A   Scattered Clouds
11:15 PM 60.1 °F - 58.3 °F 94% 30.38 in 10.0 mi Calm Calm - N/A   Scattered Clouds
11:35 PM 59.9 °F - 58.3 °F 94% 30.38 in 10.0 mi Calm Calm - N/A   Scattered Clouds
11:55 PM 59.2 °F - 57.4 °F 94% 30.39 in 10.0 mi Calm Calm - N/A   Scattered Clouds